weather.gov     
National Weather Service

Terminal Aerodrome Forecast
NWS Homepage
This page is being discontinued on March 12, 2014.
The same data is available at this site. Please update your bookmarks.
Thank you, and we apologize for the inconvenience.
Please send an email to SR-SRH.Webmaster@noaa.gov with any concerns.


Current Version
Previous Version:    01  02  03  04  05  06  07  08  09  10  11  12  13  14  15  16  17  18  19  20  21  22  23  24  25  26  27  28  29  30  
   31  32  33  34  35  36  37  38  39  40  41  42  43  
[Printable]
298
FTUS41 KBTV 311700
TAFMPV
TAF
KMPV 311722Z 3118/0118 18008KT 6SM -SHRA VCTS SCT025 BKN070CB
      TEMPO 3118/3119 23015G25KT 2SM +TSRA OVC020CB
     FM312200 19009KT P6SM BKN060
     FM010600 VRB03KT 3SM BR SKC
     FM010900 VRB03KT 1/2SM FG VV002
     FM011200 19004KT P6SM SCT080=


U.S. Dept. of Commerce
NOAA National Weather Service
1325 East West Highway
Silver Spring, MD 20910
E-mail: w-nws.webmaster@noaa.gov
Page last modified: May 16, 2007
NATIONAL WEATHER SERVICE: for Safety, for Work, for Fun - FOR LIFE